Location: Chacón
(10.5789°N, 66.9317°W)
Time: 19:53:05
(UTC+00:00)

Sakura Rocket - Pass Details

Date: 19 August 2024
Orbit: 475 x 1710 km, 28.7° (Epoch: 09 September)

Event Time Altitude Azimuth Distance (km) Brightness Sun altitude
Rises 23:33:44 0° 271° (W) 3,366 8.5 -12.7°
Reaches altitude 10° 23:37:09 10° 287° (WNW) 2,200 7.4 -13.5°
Maximum altitude 23:40:49 20° 334° (NNW) 1,427 5.4 -14.4°
Drops below altitude 10° 23:43:55 10° 23° (NNE) 1,813 5.4 -15.1°
Enters shadow 23:45:50 - 39° (NE) 2,397 5.9 -15.6°
